Location: Limerick
(52.6650°N, 8.6230°W)
Time: 02:22:58
(UTC+01:00)

Envisat - Visible Passes

Search period start: 21 September 2017 00:00
Search period end: 01 October 2017 00:00
Orbit: 764 x 766 km, 98.2° (Epoch: 20 September)

Date Brightness Start Highest point End Pass type
(mag) Time Alt. Az. Time Alt. Az. Time Alt. Az.
21 Sep 3.0 21:09:02 10° SSE 21:14:08 87° WSW 21:19:16 10° NNW visible
21 Sep 5.6 22:51:01 10° WSW 22:53:55 15° W 22:56:51 10° NW visible
22 Sep 3.2 20:32:36 10° SE 20:37:29 50° ENE 20:42:25 10° N visible
22 Sep 4.8 22:12:23 10° SSW 22:16:46 29° W 22:21:10 10° NNW visible
23 Sep 4.0 19:56:45 10° ESE 20:01:02 28° ENE 20:05:20 10° N visible
23 Sep 3.6 21:34:49 10° S 21:39:48 55° W 21:44:49 10° NNW visible
24 Sep 2.9 20:57:57 10° SSE 21:03:02 79° ENE 21:08:08 10° NNW visible
24 Sep 5.4 22:39:11 10° SW 22:42:40 18° W 22:46:11 10° NW visible
25 Sep 3.4 20:21:41 10° SE 20:26:27 42° ENE 20:31:14 10° N visible
25 Sep 4.4 22:00:57 10° SSW 22:05:34 35° W 22:10:13 10° NNW visible
26 Sep 3.3 21:23:37 10° S 21:28:40 67° WSW 21:33:45 10° NNW visible
26 Sep 5.8 23:07:09 10° W 23:08:41 11° W 23:10:14 10° WNW visible
27 Sep 3.0 20:46:55 10° SSE 20:51:57 66° ENE 20:57:00 10° N visible
27 Sep 5.1 22:27:31 10° SW 22:31:26 22° W 22:35:23 10° NW visible
28 Sep 3.7 20:10:50 10° SE 20:15:25 36° ENE 20:20:02 10° N visible
28 Sep 4.1 21:49:52 11° SSW 21:54:23 42° W 21:59:14 10° NNW visible
29 Sep 3.0 21:12:53 12° SSE 21:17:32 81° WSW 21:22:39 10° NNW visible
29 Sep 5.7 22:54:48 10° WSW 22:57:24 14° W 23:00:01 10° NW visible
30 Sep 3.1 20:35:56 10° SE 20:40:53 54° ENE 20:45:51 10° N visible
30 Sep 4.9 22:16:08 11° SSW 22:20:13 27° W 22:24:31 10° NW visible
